カタログに戻る

SL-8 R/B

運用中PO
NORAD 19325·ROCKET BODY·🇷🇺 Russia

打ち上げ Jul 18, 1988 から Plesetsk Cosmodrome

Loading…

次のパス (今後24時間)

TLE

最新Source: Space-Track

元期: Sep 14, 2026, 20:19 UTC

1 19325U 88062B   26257.84702800  .00000109  00000-0  93111-4 0  9994
2 19325  82.9519  32.8032 0034731 130.4319  31.8225 13.77921535880205

AllMySatでSL-8 R/Bをリアルタイム追跡

Download on the App Store